Wind_Speed
24 23 23 24 24 24 24 24 24 23 23 23 24 25 25 24 25 24 24 23 24 24 23 23 22 22 22 22 22 22 22 22 21 20 20 20 21 21
26 26 25 26 26 25 25 24 25 25 24 25 25 26 26 27 27 26 25 25 25 25 24 24 23 23 23 23 24 24 23 23 23 22 21 22 21 21
26 26 26 27 28 28 27 26 26 26 26 26 27 27 28 28 27 27 27 26 26 26 26 25 25 25 24 24 25 25 25 24 24 24 23 23 23 23
27 27 27 27 29 29 29 28 28 28 28 27 27 28 28 28 28 28 27 27 27 27 27 26 26 26 26 26 27 27 27 26 26 25 25 25 25 24
28 28 29 29 30 30 30 29 29 29 29 29 28 28 28 28 29 29 28 28 28 28 28 28 28 27 26 26 27 27 28 28 27 27 26 26 25 25
29 29 29 30 30 30 29 29 29 30 31 31 31 30 29 29 30 30 30 30 30 29 29 29 28 28 27 27 28 28 28 29 29 28 27 27 26 26
30 30 29 30 30 30 30 29 30 30 31 31 31 31 30 30 30 31 31 31 30 30 30 30 30 30 29 28 28 28 28 29 29 28 28 28 27 27
31 31 30 30 31 30 30 30 31 31 31 32 32 32 32 31 31 31 31 31 30 30 30 30 30 30 29 28 28 29 29 29 29 29 29 29 28 28
31 31 31 31 31 31 31 31 31 32 32 32 32 32 32 31 31 32 32 32 31 30 30 29 29 29 29 29 29 29 29 30 29 29 29 29 29 29
33 33 33 33 32 32 32 32 33 33 33 32 32 32 32 32 32 33 33 32 31 31 31 30 30 30 30 29 30 30 30 30 31 30 30 30 30 29
34 34 34 34 34 34 34 34 34 35 34 33 33 33 34 34 34 34 33 33 32 31 31 31 30 31 30 30 31 31 31 31 31 31 31 31 31 31
35 35 35 35 35 35 35 35 35 35 35 35 34 34 34 35 35 34 34 33 33 31 30 31 31 31 30 30 31 31 31 32 32 31 31 31 31 31
36 36 36 36 36 36 36 36 36 35 35 36 36 35 34 34 34 34 34 34 33 32 31 31 31 31 31 31 31 30 31 31 32 32 31 31 31 31
37 37 37 37 37 37 36 36 36 35 35 36 36 35 35 34 33 33 33 34 34 33 32 32 32 32 32 32 32 31 31 31 31 31 32 32 32 32
38 38 38 38 38 37 37 36 35 35 35 34 35 35 35 34 34 34 34 34 34 34 33 33 32 32 32 32 32 32 32 32 32 32 32 32 32 33
38 38 38 38 37 37 36 36 35 35 34 34 34 34 34 35 35 34 34 34 34 33 33 33 32 32 32 31 31 31 31 31 31 32 33 33 33 33
39 38 38 37 37 35 35 35 34 34 34 34 34 34 34 34 34 34 34 33 33 33 32 32 32 32 30 30 30 30 31 30 30 31 30 30 31 32
38 38 37 36 35 34 34 34 34 34 34 34 34 33 33 32 32 33 33 33 33 32 32 31 31 29 29 29 29 29 30 30 30 30 31 31 31 31
36 35 34 34 34 33 33 33 33 33 33 32 32 32 32 31 31 32 32 32 31 31 30 30 29 28 28 28 28 28 28 29 29 30 30 30 30 31
34 34 33 32 32 31 30 30 30 30 30 30 30 30 30 30 30 31 31 31 31 30 29 29 28 28 28 27 27 27 28 28 29 30 30 30 30 30
33 32 31 30 29 29 28 28 28 27 27 27 27 27 28 28 29 29 29 29 30 30 29 28 27 28 28 28 27 28 28 28 28 28 29 29 29 30
32 31 30 29 28 27 26 25 25 25 24 24 25 25 26 27 28 28 27 28 28 28 28 28 28 27 27 27 27 27 27 27 27 28 28 29 30 30
30 29 28 26 25 24 24 24 23 23 23 24 24 24 24 25 25 25 26 27 26 26 27 27 27 27 27 27 27 27 26 26 27 27 28 28 29 30
Wind_Direction
290 288 286 280 276 274 273 267 265 262 261 262 263 264 265 265 265 264 264 263 264 263 264 264 267 267 267 267 265 263 262 263 265 265 264 264 265 262
289 287 285 282 277 277 277 271 268 266 264 261 262 263 266 267 266 265 264 262 264 263 263 264 266 266 267 267 265 263 261 262 263 265 265 264 265 261
287 285 283 281 278 277 278 273 270 268 266 266 265 265 267 266 264 264 264 263 264 263 262 264 265 265 267 267 266 264 262 262 263 264 265 264 263 259
287 285 284 282 279 278 278 274 270 267 268 268 267 266 265 265 265 265 265 265 266 264 263 263 265 266 267 267 265 264 262 261 262 263 264 264 263 259
287 286 284 283 281 279 278 275 270 268 268 269 268 266 265 265 266 267 266 266 267 267 265 264 264 266 267 268 266 264 263 261 262 262 263 262 261 260
288 288 286 283 281 278 277 273 270 269 268 268 267 268 267 265 266 266 265 265 266 266 266 264 265 266 267 267 266 265 263 261 261 261 261 261 261 259
287 286 285 284 281 278 275 271 270 270 270 269 269 268 267 266 266 266 266 265 265 266 265 263 264 265 265 265 264 263 262 261 260 258 259 259 259 257
285 285 284 282 281 279 276 273 271 270 270 270 271 270 269 268 265 266 267 266 265 265 264 263 262 263 263 262 261 260 260 260 260 259 258 258 257 255
286 285 284 283 281 280 278 276 273 271 271 272 272 272 270 269 268 268 268 267 267 266 264 263 261 260 259 259 260 260 260 259 260 259 258 257 256 254
285 284 283 282 281 279 279 277 275 272 271 271 271 272 270 269 268 268 268 267 267 266 265 264 261 260 259 259 259 259 260 260 259 258 256 255 254 254
286 285 283 281 280 280 279 278 276 274 271 270 271 270 270 270 268 268 267 268 267 266 264 263 262 261 259 259 259 259 259 259 258 256 256 255 253 253
285 284 283 282 280 280 279 278 276 274 271 269 270 270 269 269 267 267 266 266 266 265 264 263 262 262 261 261 259 258 258 258 256 255 255 255 252 250
285 284 283 282 281 280 279 278 276 273 271 269 268 269 269 268 266 264 263 263 263 265 264 264 264 263 262 263 261 259 257 255 254 252 251 252 250 248
284 283 282 282 282 281 279 278 276 273 271 269 268 268 269 267 265 263 263 263 263 264 264 264 264 263 263 262 260 259 258 256 254 252 250 250 249 247
285 284 283 282 282 281 279 276 274 272 271 270 269 268 267 265 264 263 262 263 263 264 263 263 263 263 263 262 260 258 257 255 253 251 251 250 250 248
286 285 285 284 283 281 278 275 273 271 271 270 269 267 265 265 264 263 261 261 262 262 262 262 262 262 263 260 259 257 256 256 254 252 251 250 250 248
287 286 286 284 281 280 277 275 272 270 270 269 268 266 265 265 264 262 260 259 260 260 260 261 263 263 262 259 257 255 255 255 254 253 251 250 249 248
288 287 285 283 281 279 277 275 272 270 270 268 267 265 264 262 262 260 258 257 257 257 258 260 261 260 260 258 257 255 255 256 255 253 251 249 248 247
289 289 286 282 280 279 277 276 273 271 270 268 266 264 262 260 259 259 258 256 255 256 257 257 258 257 257 257 256 255 256 256 256 254 251 249 248 247
288 287 285 283 280 279 277 276 275 272 269 267 265 262 260 259 258 258 257 255 255 255 254 253 254 256 255 256 257 256 256 256 254 252 250 248 247 247
287 286 285 282 281 280 278 277 276 273 268 265 263 261 260 259 258 257 255 255 256 254 252 251 253 255 255 256 258 257 256 256 255 253 251 248 246 247
289 287 286 283 280 279 277 276 274 271 268 266 264 262 260 259 258 256 256 256 255 254 252 251 253 254 255 256 256 256 256 255 254 253 252 250 248 248
288 286 285 283 280 277 275 274 273 270 268 265 265 263 260 259 259 257 257 255 255 254 253 252 253 253 254 255 255 256 256 255 253 252 252 251 251 251
Height
5771 5769 5768 5768 5767 5767 5767 5768 5770 5772 5773 5774 5774 5775 5775 5776 5777 5778 5778 5779 5779 5779 5779 5780 5780 5781 5781 5782 5782 5782 5783 5783 5784 5784 5785 5786 5786 5787
5765 5763 5762 5761 5760 5760 5760 5761 5762 5763 5765 5767 5767 5768 5768 5769 5770 5770 5771 5771 5771 5772 5772 5773 5774 5774 5774 5775 5775 5775 5776 5776 5777 5778 5778 5779 5780 5781
5758 5756 5755 5754 5753 5753 5753 5754 5754 5755 5757 5759 5759 5760 5761 5761 5762 5763 5763 5764 5764 5764 5765 5766 5766 5767 5767 5767 5768 5768 5769 5769 5770 5771 5771 5772 5773 5774
5751 5749 5748 5747 5746 5746 5745 5746 5746 5747 5748 5749 5751 5752 5752 5753 5754 5755 5755 5756 5756 5757 5757 5758 5758 5759 5759 5759 5760 5760 5761 5761 5762 5763 5764 5765 5765 5766
5743 5742 5740 5739 5739 5737 5737 5737 5738 5739 5739 5741 5742 5743 5744 5744 5745 5746 5747 5748 5748 5748 5749 5749 5750 5750 5751 5751 5751 5752 5753 5754 5754 5755 5756 5757 5758 5759
5736 5734 5733 5731 5730 5729 5728 5729 5729 5730 5730 5731 5733 5734 5735 5735 5736 5737 5738 5739 5739 5739 5739 5740 5741 5741 5742 5742 5743 5743 5744 5745 5746 5747 5748 5749 5750 5752
5727 5726 5724 5723 5722 5720 5720 5720 5720 5720 5721 5722 5723 5724 5725 5726 5727 5728 5729 5729 5730 5730 5730 5731 5732 5732 5732 5733 5733 5734 5735 5736 5737 5739 5740 5741 5742 5744
5719 5717 5715 5714 5713 5712 5711 5711 5711 5711 5712 5712 5713 5714 5715 5716 5716 5717 5718 5720 5721 5722 5721 5721 5721 5723 5723 5724 5724 5725 5726 5728 5729 5730 5731 5733 5734 5736
5710 5708 5707 5705 5704 5703 5702 5702 5701 5701 5702 5703 5703 5704 5705 5705 5706 5707 5708 5709 5710 5711 5711 5711 5711 5712 5713 5714 5715 5716 5718 5719 5720 5721 5723 5724 5726 5728
5700 5698 5697 5696 5694 5693 5693 5692 5692 5692 5692 5692 5693 5694 5694 5694 5695 5696 5697 5698 5699 5699 5700 5702 5702 5702 5703 5705 5706 5707 5708 5710 5711 5712 5714 5716 5717 5719
5690 5688 5687 5685 5684 5683 5683 5682 5682 5682 5681 5682 5682 5683 5683 5684 5684 5685 5686 5687 5688 5689 5690 5691 5692 5693 5693 5695 5696 5697 5699 5700 5702 5704 5705 5707 5709 5711
5681 5678 5676 5675 5673 5672 5671 5671 5671 5671 5671 5671 5671 5672 5672 5673 5673 5674 5675 5677 5678 5679 5680 5681 5682 5683 5684 5685 5686 5687 5689 5691 5692 5694 5696 5697 5700 5702
5670 5668 5666 5664 5663 5661 5660 5660 5659 5659 5659 5660 5660 5660 5661 5662 5663 5664 5665 5666 5668 5669 5670 5671 5672 5673 5674 5676 5676 5677 5679 5681 5682 5684 5686 5688 5690 5693
5659 5657 5655 5654 5652 5650 5649 5648 5648 5648 5648 5648 5649 5649 5650 5651 5652 5653 5655 5656 5657 5659 5660 5661 5662 5663 5664 5665 5667 5668 5669 5671 5672 5674 5676 5678 5681 5684
5648 5646 5644 5642 5640 5639 5638 5637 5636 5636 5637 5637 5638 5639 5639 5640 5641 5643 5644 5645 5647 5648 5649 5650 5652 5652 5653 5655 5656 5658 5660 5661 5662 5664 5666 5669 5671 5674
5637 5635 5632 5630 5629 5627 5626 5625 5625 5625 5626 5626 5627 5628 5628 5629 5631 5632 5633 5635 5636 5637 5639 5640 5641 5642 5643 5644 5646 5648 5649 5651 5653 5654 5656 5658 5661 5663
5626 5623 5621 5619 5617 5616 5615 5614 5614 5614 5615 5615 5616 5616 5617 5618 5619 5621 5622 5624 5625 5627 5628 5629 5630 5631 5632 5634 5636 5638 5639 5641 5643 5644 5646 5648 5650 5653
5614 5612 5610 5608 5606 5605 5604 5604 5603 5603 5603 5603 5604 5605 5606 5607 5608 5610 5611 5613 5615 5617 5618 5619 5620 5621 5623 5625 5627 5628 5629 5631 5633 5634 5636 5638 5641 5644
5603 5601 5599 5597 5596 5595 5594 5593 5592 5592 5592 5592 5593 5594 5595 5596 5598 5599 5601 5603 5605 5607 5608 5610 5611 5612 5614 5616 5618 5619 5621 5622 5623 5625 5627 5629 5632 5635
5593 5591 5589 5587 5585 5584 5583 5583 5582 5582 5582 5582 5583 5584 5585 5587 5588 5590 5592 5594 5596 5597 5599 5601 5603 5604 5606 5608 5609 5611 5612 5613 5615 5617 5618 5621 5623 5625
5583 5581 5579 5577 5576 5575 5574 5574 5573 5573 5573 5573 5574 5575 5577 5578 5580 5581 5583 5585 5586 5588 5590 5592 5594 5596 5597 5599 5601 5602 5604 5605 5606 5608 5610 5612 5614 5617
5573 5571 5569 5568 5567 5566 5566 5565 5565 5565 5565 5566 5566 5567 5569 5570 5572 5573 5575 5576 5578 5579 5582 5584 5586 5587 5589 5591 5593 5594 5595 5596 5597 5599 5601 5604 5606 5608
5564 5562 5561 5559 5558 5558 5557 5557 5557 5558 5558 5558 5559 5560 5561 5562 5563 5565 5566 5568 5569 5571 5573 5575 5577 5579 5580 5582 5584 5586 5587 5588 5589 5591 5592 5594 5597 5599